Jefferson, NC

2:28 PM EST on December 08, 2019 (GMT -0500)
Ashe County

Weather History for KGEV - November, 2019

Change the Weather History Date:

Sunday, November 17, 2019

  Actual Average Record
Temperature  
Mean Temperature 39 °F -  
Max Temperature 51 °F 53 °F 69 °F (1985)
Min Temperature 28 °F 30 °F 13 °F (1970)
Degree Days  
Heating Degree Days 26    
Moisture  
Dew Point 31 °F    
Average Humidity 78    
Maximum Humidity 99    
Minimum Humidity 58    
Precipitation  
Precipitation 0.00 in - - ()
Sea Level Pressure  
Sea Level Pressure 30.03 in    
Wind  
Wind Speed 2 mph ()    
Max Wind Speed 7 mph    
Max Gust Speed -    
Visibility 10.0 miles    
Events      
Averages and records for this station are not official NWS values.
T = Trace of Precipitation, MM = Missing Value Source: Averaged Metar Reports

Daily Weather History Graph

Daily Weather History Graph

Search for Another Location

Airport or City:

Astronomy

Nov. 17, 2019 Rise Set
Actual Time 7:04 AM EST 5:16 PM EST
Civil Twilight 6:37 AM EST 5:43 PM EST
Nautical Twilight 6:06 AM EST 6:14 PM EST
Astronomical Twilight 5:35 AM EST 6:45 PM EST
Moon 9:53 PM EST (11/17) 11:47 AM EST (11/17)
Length of Visible Light 11h 06m
Length of Day
10h 11m
Waning Gibbous, 73% of the Moon is Illuminated
Nov 17
Waning Gibbous
Nov 19
Last Quarter
Nov 26
New
Dec 4
First Quarter
Dec 12
Full

Hourly Weather History & Observations

Time (EST) Temp. Windchill Dew Point Humidity Pressure Visibility Wind Dir Wind Speed Gust Speed Precip Events Conditions
12:15 AM 29.1 °F 24.1 °F 21.7 °F 74% 30.13 in 10.0 mi North 4.6 mph - N/A   Clear
12:35 AM 28.9 °F 25.2 °F 21.2 °F 73% 30.13 in 10.0 mi North 3.5 mph - N/A   Clear
12:55 AM 28.6 °F 24.8 °F 21.0 °F 73% 30.14 in 10.0 mi North 3.5 mph - N/A   Scattered Clouds
1:15 AM 28.4 °F 23.3 °F 21.0 °F 74% 30.13 in 10.0 mi North 4.6 mph - N/A   Mostly Cloudy
1:35 AM 28.4 °F 22.2 °F 20.8 °F 73% 30.13 in 10.0 mi North 5.8 mph - N/A   Overcast
1:55 AM 28.2 °F 21.0 °F 20.5 °F 73% 30.13 in 10.0 mi North 6.9 mph - N/A   Overcast
2:15 AM 28.2 °F 24.4 °F 21.2 °F 75% 30.13 in 10.0 mi North 3.5 mph - N/A   Overcast
2:35 AM 28.2 °F 23.1 °F 22.1 °F 78% 30.12 in 10.0 mi NNE 4.6 mph - N/A   Overcast
2:55 AM 28.4 °F - 22.8 °F 80% 30.12 in 10.0 mi Calm Calm - N/A   Overcast
3:15 AM 28.8 °F 23.7 °F 23.4 °F 80% 30.11 in 10.0 mi North 4.6 mph - N/A   Overcast
3:55 AM 28.8 °F - 24.8 °F 85% 30.11 in 10.0 mi Calm Calm - N/A   Overcast
4:35 AM 29.1 °F - 25.0 °F 85% 30.11 in 10.0 mi Calm Calm - N/A   Overcast
4:55 AM 29.3 °F 25.6 °F 24.4 °F 82% 30.11 in 10.0 mi North 3.5 mph - N/A   Overcast
5:15 AM 29.7 °F - 24.4 °F 81% 30.10 in 10.0 mi Calm Calm - N/A   Overcast
5:35 AM 29.7 °F 26.1 °F 24.3 °F 80% 30.10 in 10.0 mi North 3.5 mph - N/A   Overcast
6:15 AM 29.7 °F - 25.2 °F 83% 30.11 in 10.0 mi Calm Calm - N/A   Scattered Clouds
6:35 AM 29.8 °F - 25.5 °F 84% 30.10 in 10.0 mi Calm Calm - N/A   Mostly Cloudy
6:55 AM 30.2 °F - 26.2 °F 85% 30.10 in 10.0 mi Calm Calm - N/A   Overcast
7:15 AM 30.2 °F - 26.4 °F 86% 30.10 in 10.0 mi Calm Calm - N/A   Overcast
7:55 AM 30.9 °F - 26.6 °F 84% 30.10 in 10.0 mi Calm Calm - N/A   Overcast
8:15 AM 31.3 °F 27.9 °F 27.0 °F 84% 30.09 in 10.0 mi NNE 3.5 mph - N/A   Overcast
8:35 AM 32.0 °F 28.7 °F 27.5 °F 83% 30.09 in 10.0 mi NNE 3.5 mph - N/A   Overcast
8:55 AM 32.0 °F - 27.5 °F 83% 30.09 in 10.0 mi Calm Calm - N/A   Overcast
9:35 AM 33.6 °F - 28.8 °F 82% 30.09 in 10.0 mi Calm Calm - N/A   Scattered Clouds
9:55 AM 34.2 °F 29.0 °F 28.6 °F 80% 30.09 in 10.0 mi East 5.8 mph - N/A   Mostly Cloudy
10:35 AM 37.4 °F - 30.0 °F 75% 30.08 in 10.0 mi Calm Calm - N/A   Clear
10:55 AM 39.2 °F - 31.5 °F 74% 30.08 in 10.0 mi Calm Calm - N/A   Mostly Cloudy
11:15 AM 40.1 °F - 32.0 °F 73% 30.07 in 10.0 mi Calm Calm - N/A   Mostly Cloudy
11:35 AM 41.7 °F 39.8 °F 32.4 °F 69% 30.06 in 10.0 mi ESE 3.5 mph - N/A   Overcast
11:55 AM 44.1 °F - 33.1 °F 65% 30.04 in 10.0 mi Calm Calm - N/A   Scattered Clouds
12:15 PM 45.1 °F 43.7 °F 33.1 °F 63% 30.03 in 10.0 mi ESE 3.5 mph - N/A   Clear
12:35 PM 46.8 °F - 33.6 °F 60% 30.02 in 10.0 mi ESE 4.6 mph - N/A   Clear
12:55 PM 48.9 °F - 34.5 °F 58% 30.00 in 10.0 mi ESE 3.5 mph - N/A   Clear
1:15 PM 49.5 °F - 35.1 °F 58% 29.99 in 10.0 mi East 4.6 mph - N/A   Clear
1:55 PM 50.4 °F - 36.0 °F 58% 29.97 in 10.0 mi ESE 3.5 mph - N/A   Clear
2:15 PM 50.4 °F - 36.0 °F 58% 29.97 in 10.0 mi SE 3.5 mph - N/A   Clear
2:35 PM 50.5 °F - 36.1 °F 58% 29.96 in 10.0 mi Calm Calm - N/A   Clear
2:55 PM 49.8 °F - 36.0 °F 59% 29.96 in 10.0 mi SE 3.5 mph - N/A   Clear
3:35 PM 49.1 °F - 36.0 °F 61% 29.96 in 10.0 mi SSE 4.6 mph - N/A   Clear
3:55 PM 47.5 °F - 36.0 °F 64% 29.94 in 10.0 mi SSE 3.5 mph - N/A   Clear
4:15 PM 46.4 °F - 36.0 °F 67% 29.94 in 10.0 mi Calm Calm - N/A   Clear
4:55 PM 44.6 °F 42.2 °F 35.8 °F 71% 29.95 in 10.0 mi SSE 4.6 mph - N/A   Clear
5:15 PM 43.2 °F - 35.6 °F 75% 29.95 in 10.0 mi Calm Calm - N/A   Clear
5:55 PM 42.1 °F 40.2 °F 36.0 °F 79% 29.95 in 10.0 mi SSE 3.5 mph - N/A   Clear
6:15 PM 41.2 °F 39.2 °F 36.0 °F 82% 29.96 in 10.0 mi SSE 3.5 mph - N/A   Clear
6:35 PM 40.6 °F - 35.8 °F 83% 29.96 in 10.0 mi Calm Calm - N/A   Clear
6:55 PM 40.5 °F 38.4 °F 36.0 °F 84% 29.95 in 10.0 mi South 3.5 mph - N/A   Clear
7:15 PM 40.3 °F - 36.0 °F 85% 29.95 in 10.0 mi Calm Calm - N/A   Clear
7:35 PM 39.9 °F - 36.0 °F 86% 29.95 in 10.0 mi Calm Calm - N/A   Scattered Clouds
7:55 PM 40.1 °F - 36.3 °F 86% 29.94 in 10.0 mi Calm Calm - N/A   Mostly Cloudy
8:15 PM 39.7 °F - 36.0 °F 86% 29.94 in 10.0 mi Calm Calm - N/A   Overcast
8:35 PM 38.1 °F - 35.2 °F 89% 29.94 in 10.0 mi Calm Calm - N/A   Scattered Clouds
8:55 PM 38.5 °F - 35.8 °F 90% 29.94 in 10.0 mi Calm Calm - N/A   Clear
9:15 PM 37.9 °F - 35.6 °F 91% 29.94 in 10.0 mi Calm Calm - N/A   Clear
9:35 PM 37.8 °F - 36.3 °F 95% 29.93 in 10.0 mi Calm Calm - N/A   Clear
9:55 PM 36.9 °F - 35.4 °F 95% 29.93 in 10.0 mi Calm Calm - N/A   Clear
10:35 PM 36.7 °F - 36.1 °F 98% 29.92 in 10.0 mi Calm Calm - N/A   Clear
10:55 PM 36.7 °F - 36.1 °F 98% 29.91 in 10.0 mi Calm Calm - N/A   Clear
11:15 PM 36.5 °F - 36.1 °F 99% 29.90 in 10.0 mi Calm Calm - N/A   Clear
11:55 PM 35.6 °F - 35.4 °F 99% 29.89 in 10.0 mi Calm Calm - N/A   Clear